Temperature
5 7 7 7 7 8 8 8 8 8 8 7 7 7 7 7 6 6 6 6 6 6 6 6 7 7 8 9 9 9 9 10 10 10 10 10 10 10 10 10 10 10 10 10
6 6 6 6 6 7 7 7 7 7 7 7 7 7 7 6 6 6 5 5 5 5 5 5 6 6 7 8 8 9 9 9 9 9 9 9 9 9 9 9 9 9 9 9
5 5 5 6 5 6 6 7 7 6 6 6 6 6 6 6 5 5 5 5 4 4 4 4 5 6 6 7 7 8 8 8 8 9 8 9 9 9 9 9 9 9 9 9
5 5 5 5 5 5 6 6 6 6 6 7 7 7 6 6 5 5 4 4 4 4 4 4 4 5 5 6 7 7 7 8 8 8 8 8 8 8 8 8 9 9 9 9
4 4 4 4 4 5 5 5 5 6 6 6 6 6 6 5 5 5 4 4 3 3 3 3 3 4 5 6 6 6 6 7 7 7 7 7 7 7 8 8 8 8 8 8
4 3 3 4 4 5 5 5 5 5 6 5 5 6 6 5 4 4 4 3 3 2 2 2 3 3 4 5 5 6 6 6 6 7 7 7 7 7 7 7 8 8 8 8
3 4 3 3 3 4 5 5 5 5 5 5 5 5 4 3 3 3 3 2 2 2 1 2 2 2 3 4 4 5 5 5 6 6 6 6 6 6 7 7 7 7 7 7
2 3 3 2 3 3 4 4 5 5 5 5 4 4 3 2 2 1 1 1 1 1 1 1 1 2 2 3 3 4 4 4 5 5 5 5 6 6 6 6 6 6 7 7
2 2 2 2 2 3 3 3 4 4 4 4 4 3 2 2 1 1 1 0 0 0 0 0 0 1 2 2 3 3 3 4 4 4 4 5 5 5 5 6 6 6 6 6
1 1 2 2 2 2 3 3 3 3 4 4 4 3 3 1 1 1 0 -0 -1 -1 -0 -0 -0 0 0 1 2 2 3 3 3 4 4 4 4 4 5 5 5 5 5 5
0 0 1 1 1 1 1 2 2 3 3 4 3 3 2 1 0 0 -0 -1 -1 -1 -1 -1 -1 -1 -0 0 1 1 2 2 2 3 3 3 4 4 4 4 4 5 5 5
0 0 1 1 1 1 1 1 1 2 2 2 3 2 0 0 -0 -1 -1 -2 -2 -2 -2 -1 -1 -1 -1 -0 0 0 1 1 1 2 2 3 3 3 3 3 3 4 4 4
-0 -0 0 1 1 -0 -0 -0 -0 0 1 1 2 2 -0 -1 -1 -2 -2 -3 -3 -3 -2 -2 -2 -1 -1 -1 -0 -0 0 0 1 1 1 2 2 2 2 2 3 3 3 3
-1 -1 -0 0 -0 -1 -1 -1 -1 -0 0 1 1 0 -1 -1 -1 -2 -3 -3 -3 -3 -3 -3 -2 -2 -2 -1 -1 -1 -0 -0 0 1 1 1 1 1 2 2 2 2 2 2
-1 -1 -2 -1 -1 -1 -1 -2 -1 -2 -1 -0 -0 -1 -1 -1 -2 -3 -3 -3 -4 -4 -3 -3 -3 -3 -2 -2 -1 -1 -1 -1 -0 0 0 0 0 1 1 1 1 1 2 2
-2 -2 -2 -2 -1 -1 -2 -2 -2 -2 -2 -2 -2 -2 -2 -2 -3 -3 -3 -4 -4 -4 -4 -4 -4 -3 -3 -3 -2 -2 -2 -1 -1 -1 -0 -0 -0 0 0 0 1 1 1 1
-3 -3 -2 -1 -2 -2 -2 -3 -3 -3 -3 -3 -3 -2 -2 -3 -3 -4 -4 -4 -4 -4 -5 -4 -4 -4 -4 -3 -3 -2 -2 -2 -2 -1 -1 -1 -1 -0 -0 -0 0 0 0 1
-4 -3 -2 -2 -2 -3 -2 -3 -3 -3 -3 -4 -3 -3 -3 -4 -4 -4 -4 -5 -5 -5 -5 -5 -5 -5 -4 -4 -3 -3 -3 -3 -2 -2 -2 -2 -1 -1 -1 -1 -1 -1 -0 -0
-4 -3 -2 -2 -2 -2 -3 -4 -4 -4 -4 -4 -4 -4 -4 -5 -4 -4 -5 -5 -5 -5 -5 -5 -5 -5 -5 -4 -4 -4 -3 -3 -3 -3 -2 -2 -2 -2 -2 -1 -1 -1 -1 -1
-4 -4 -3 -3 -2 -3 -3 -4 -5 -4 -3 -4 -5 -5 -5 -5 -3 -3 -5 -6 -5 -5 -6 -6 -6 -5 -5 -5 -4 -4 -4 -4 -4 -3 -3 -3 -3 -3 -2 -2 -2 -1 -1 -1
-5 -4 -4 -3 -3 -3 -4 -6 -5 -4 -4 -5 -6 -6 -6 -5 -5 -6 -6 -6 -6 -6 -6 -6 -6 -5 -5 -5 -5 -5 -5 -5 -4 -4 -4 -4 -3 -3 -3 -3 -2 -2 -2 -2
-5 -4 -5 -4 -4 -4 -5 -5 -5 -5 -6 -6 -6 -7 -7 -7 -7 -7 -7 -6 -6 -6 -6 -6 -6 -6 -6 -6 -5 -5 -5 -5 -5 -5 -4 -4 -4 -4 -3 -3 -3 -3 -3 -2
-6 -6 -5 -5 -4 -5 -7 -7 -7 -7 -7 -7 -7 -7 -7 -7 -7 -7 -7 -7 -7 -7 -7 -6 -6 -6 -6 -6 -6 -6 -5 -5 -5 -5 -5 -5 -4 -4 -4 -4 -4 -3 -3 -3
-6 -8 -7 -6 -6 -6 -7 -7 -7 -8 -8 -8 -8 -8 -8 -8 -8 -8 -8 -8 -7 -7 -7 -7 -7 -7 -6 -6 -6 -6 -6 -6 -5 -5 -5 -5 -5 -5 -4 -4 -4 -4 -4 -4
-7 -7 -7 -6 -6 -7 -7 -7 -8 -8 -8 -8 -8 -8 -8 -8 -8 -8 -8 -8 -8 -8 -8 -7 -7 -7 -7 -6 -6 -6 -6 -6 -6 -6 -6 -6 -5 -5 -5 -5 -5 -4 -4 -4
-8 -8 -7 -6 -7 -7 -7 -7 -8 -8 -8 -8 -8 -8 -8 -8 -8 -8 -8 -8 -8 -8 -8 -8 -8 -7 -7 -7 -7 -7 -7 -6 -6 -6 -6 -6 -6 -6 -6 -5 -5 -5 -5 -4
Wind_Speed
0 2 4 6 9 9 9 10 11 8 4 6 8 7 4 1 1 2 2 2 2 1 1 1 1 1 2 2 2 3 4 3 3 3 3 3 3 3 3 3 4 5 5 6
1 4 5 5 7 8 8 10 9 5 4 6 7 6 4 2 2 2 2 2 1 1 1 1 1 2 1 1 2 2 3 3 3 2 3 2 2 2 2 2 3 4 5 5
3 3 3 4 4 6 8 9 8 6 4 6 6 6 5 3 2 1 1 1 1 1 1 0 1 1 1 1 1 1 2 3 3 3 3 3 3 2 2 2 2 3 4 5
3 4 3 3 4 5 7 5 6 6 5 5 7 6 5 4 2 2 2 1 1 1 1 0 1 1 1 0 0 0 1 2 2 2 3 5 4 4 3 3 3 3 4 4
2 3 3 4 5 5 5 4 5 7 6 5 5 5 3 3 2 2 2 1 1 1 0 1 1 1 1 1 1 1 1 1 1 2 3 4 4 3 3 3 4 3 3 4
3 2 3 5 4 3 3 3 3 4 4 6 6 6 3 1 3 2 1 2 2 2 1 2 2 2 3 3 2 2 2 1 0 1 2 3 4 4 4 4 4 4 3 3
4 3 4 5 4 2 1 1 2 3 4 4 4 4 1 3 2 1 2 2 2 3 3 3 3 3 3 4 3 2 2 1 1 1 0 1 3 4 5 5 4 4 3 3
4 3 6 5 3 3 2 3 2 3 3 2 3 4 1 4 4 3 3 3 3 4 4 4 3 3 3 3 3 3 2 1 1 1 1 1 1 2 3 4 4 4 3 4
4 4 5 6 5 2 1 2 3 2 2 3 2 1 0 4 6 6 6 6 5 4 4 4 4 4 4 3 3 3 2 2 1 1 1 1 1 2 2 3 3 3 3 3
3 4 6 5 3 5 2 1 2 2 2 3 2 2 1 4 5 6 7 7 6 5 5 5 4 5 4 4 4 3 3 2 2 2 1 1 1 2 2 2 3 3 3 3
3 3 4 4 5 7 4 1 1 2 3 3 3 1 3 1 2 4 5 6 6 6 6 5 5 5 5 4 4 4 4 3 3 3 2 2 2 2 2 2 3 3 3 4
3 2 3 2 4 5 5 2 1 2 2 2 3 1 4 3 3 5 6 7 7 6 6 6 5 5 5 5 5 4 4 4 4 3 3 2 2 2 2 3 3 3 3 4
3 2 3 0 1 5 5 6 3 1 1 2 3 1 3 4 6 7 7 8 7 6 6 6 6 6 5 5 5 4 4 4 4 3 3 3 2 3 3 3 3 3 4 4
2 1 1 2 3 3 4 5 4 1 2 2 3 4 4 6 7 8 8 8 8 7 7 6 6 6 6 6 6 5 5 4 4 4 3 3 3 3 3 3 3 3 4 4
2 1 0 2 3 2 3 4 3 1 3 3 4 4 5 6 7 7 7 7 8 8 8 7 7 7 7 6 6 6 5 5 4 4 3 4 4 4 4 3 3 3 4 4
3 2 1 2 2 2 3 5 4 3 3 3 4 5 6 6 6 7 8 8 8 8 8 8 8 7 7 7 6 6 6 5 4 4 4 4 4 4 4 3 3 3 4 4
2 1 2 2 2 2 3 4 2 1 2 3 4 5 6 6 7 8 8 8 7 8 8 9 8 7 7 6 6 6 6 5 4 4 4 4 4 4 4 4 3 3 4 4
2 1 2 2 1 1 1 2 2 2 2 4 5 6 6 7 8 7 7 7 8 8 9 9 8 8 7 6 6 6 5 5 4 4 4 5 5 4 4 4 4 4 3 3
2 2 1 1 1 3 2 2 3 3 3 4 5 7 8 8 6 4 6 8 8 8 8 8 7 7 6 6 5 5 5 5 5 5 5 5 5 5 4 4 4 4 3 3
2 0 1 1 2 3 2 3 4 3 2 4 5 7 8 7 5 6 9 10 9 9 8 7 7 6 6 5 5 4 5 5 5 6 6 6 5 5 4 4 4 4 3 3
1 1 1 2 3 3 3 5 2 2 3 6 6 7 7 6 7 9 10 10 9 9 8 7 6 6 5 5 4 4 5 6 6 6 6 6 5 5 4 4 4 3 3 2
2 1 1 2 3 2 3 2 0 3 5 6 6 7 7 8 9 9 10 9 9 9 8 7 6 6 6 5 5 5 6 7 7 6 6 6 5 5 4 3 3 3 2 2
2 2 2 3 2 2 0 2 3 4 6 6 7 7 7 8 8 9 9 9 9 8 8 7 6 6 6 6 5 5 6 7 7 6 6 6 5 4 4 3 3 3 2 2
2 1 2 3 4 5 4 4 5 5 6 7 7 7 7 7 9 9 9 8 8 8 7 7 6 6 6 6 6 6 6 6 6 6 6 5 5 5 4 3 3 2 2 2
2 2 2 4 5 6 4 5 6 7 7 7 7 7 7 7 8 8 8 8 8 7 7 6 6 6 7 7 6 6 6 5 5 5 5 5 5 4 4 4 4 4 3 3
2 3 3 4 4 4 6 5 6 6 7 7 7 7 7 7 8 8 7 7 7 7 6 6 6 6 7 7 6 6 6 5 5 5 5 4 4 4 4 4 4 6 4 5
Wind_Direction
158 206 227 229 228 244 241 238 242 245 230 218 222 238 244 248 197 209 227 250 248 246 210 105 91 113 114 113 138 157 154 152 151 153 157 161 166 161 156 159 163 167 172 176
216 244 258 258 241 243 239 243 246 256 237 223 223 240 243 244 233 222 224 245 243 283 299 59 64 80 104 125 122 157 165 170 173 172 170 172 169 165 161 157 166 175 176 181
257 307 289 260 253 242 243 240 242 243 248 219 214 232 233 254 253 273 269 257 248 254 224 49 44 71 90 125 149 184 187 180 176 164 156 142 136 136 158 169 173 182 185 187
276 306 304 275 265 252 245 240 236 221 224 224 212 234 223 221 242 290 291 271 286 297 240 112 40 52 75 192 188 157 193 173 170 165 171 176 185 190 196 190 187 184 189 192
307 325 314 290 283 255 248 253 234 223 226 239 223 230 239 181 248 276 279 285 310 321 338 53 33 37 48 52 52 48 71 146 165 179 180 190 200 202 190 183 187 191 189 194
322 327 336 319 305 260 252 228 217 214 221 234 222 215 251 188 260 285 322 357 2 4 39 47 36 43 43 44 45 49 59 57 129 174 184 199 201 197 193 192 191 195 194 196
353 21 10 355 353 13 355 212 213 205 213 232 192 207 255 27 9 326 334 354 17 26 35 43 36 31 30 34 30 38 46 35 35 65 204 219 212 207 205 203 203 201 201 205
339 349 13 3 347 292 253 229 244 241 234 245 192 219 112 41 31 26 15 9 20 27 31 28 22 21 23 26 24 32 23 9 16 21 315 267 240 221 219 215 211 212 213 214
330 316 356 5 1 336 267 240 265 272 276 250 221 135 156 19 23 22 17 13 10 9 14 17 18 17 13 11 14 18 7 0 1 350 337 300 265 240 228 225 223 221 222 220
315 301 336 352 3 21 340 291 246 233 240 238 233 239 308 355 357 2 7 5 0 1 7 9 10 9 6 2 3 9 2 357 357 357 343 318 303 266 244 233 230 227 223 220
327 304 331 14 20 358 10 355 307 244 265 251 232 221 20 5 359 356 356 356 355 357 2 2 3 2 3 5 5 5 3 1 359 356 343 334 324 297 257 241 237 235 232 225
345 309 305 342 36 19 30 21 321 226 263 255 248 330 35 30 24 9 1 359 356 356 358 1 3 3 4 3 3 1 357 353 347 343 338 334 324 308 271 252 247 241 237 234
351 331 311 312 77 30 27 22 7 332 275 259 238 247 43 20 7 6 2 359 356 359 1 4 3 0 359 357 355 351 349 345 339 337 335 329 317 304 284 269 258 247 240 236
3 357 279 279 328 347 345 360 5 22 234 255 260 278 322 342 347 349 352 352 350 354 358 359 357 355 354 351 347 344 342 340 337 336 333 325 310 301 290 277 260 249 243 238
3 279 239 290 316 355 354 339 352 349 283 263 279 293 311 322 331 336 341 345 349 352 352 351 350 349 346 345 343 340 336 335 333 332 328 322 313 304 293 281 269 255 247 244
358 268 250 285 298 5 356 342 327 315 311 289 292 299 319 325 334 336 339 339 342 344 343 342 342 340 338 336 334 333 333 330 326 323 320 318 311 308 299 289 279 265 254 247
319 274 271 286 319 293 325 322 297 311 336 296 292 300 318 325 333 333 331 333 334 337 335 333 332 329 328 328 327 326 324 322 319 316 314 313 309 307 300 295 287 276 266 255
264 254 257 289 312 259 16 30 312 269 321 327 308 309 315 321 320 319 327 336 335 332 328 326 326 326 324 325 325 322 321 324 323 318 314 313 312 306 303 297 291 285 277 262
251 241 248 257 254 262 288 348 338 283 296 341 326 325 330 330 314 322 349 342 331 326 323 321 322 321 322 325 327 325 326 330 329 323 317 312 309 303 300 299 296 288 277 272
51 287 245 234 243 256 329 341 321 258 264 11 341 326 329 334 318 322 338 333 329 329 327 327 328 328 329 330 330 329 330 333 328 321 316 313 305 298 295 295 295 292 280 274
354 339 253 244 240 264 338 324 295 233 320 337 321 316 317 311 303 312 319 324 325 327 327 330 331 335 334 333 336 333 331 327 323 320 317 315 311 305 299 300 297 293 282 274
248 246 232 233 227 257 15 24 264 305 317 309 311 315 313 307 309 315 321 323 325 327 329 333 335 336 337 338 338 333 328 325 324 323 322 321 320 317 311 312 308 299 282 265
232 248 256 230 246 339 259 274 292 304 299 304 306 307 307 307 312 318 322 323 322 325 328 330 333 332 336 338 335 328 326 327 328 328 327 326 327 326 321 313 306 306 288 260
243 258 240 257 269 280 283 290 303 306 302 304 304 304 304 305 310 315 317 321 322 324 327 330 331 331 331 333 332 327 325 328 330 328 328 330 332 332 333 329 318 309 298 274
259 213 238 257 283 297 282 293 302 304 304 306 308 306 304 304 307 312 313 317 321 323 326 328 327 322 323 326 329 332 331 330 329 331 331 331 333 331 332 334 331 320 309 292
214 210 229 256 271 271 290 305 306 301 303 306 308 308 310 306 304 309 310 314 317 320 323 326 327 327 326 328 330 334 335 334 335 335 334 332 330 328 329 334 339 349 340 338
Height
1491 1490 1487 1486 1487 1485 1484 1483 1483 1485 1488 1491 1490 1491 1493 1495 1495 1495 1495 1496 1496 1496 1498 1498 1499 1500 1502 1504 1506 1508 1510 1512 1514 1516 1518 1520 1522 1525 1527 1529 1531 1532 1534 1536
1489 1488 1488 1488 1488 1487 1485 1483 1482 1486 1488 1489 1488 1489 1492 1494 1494 1494 1495 1495 1495 1495 1496 1496 1497 1498 1500 1502 1504 1506 1508 1510 1512 1514 1516 1518 1520 1522 1524 1526 1528 1530 1532 1533
1489 1490 1489 1488 1486 1484 1482 1481 1481 1485 1488 1488 1487 1487 1490 1491 1492 1493 1494 1494 1494 1494 1494 1495 1495 1496 1498 1499 1501 1503 1505 1508 1510 1512 1514 1516 1518 1519 1522 1523 1525 1527 1529 1531
1491 1491 1490 1487 1486 1484 1481 1482 1484 1485 1485 1482 1483 1481 1485 1488 1490 1491 1492 1493 1493 1493 1494 1494 1494 1495 1496 1498 1499 1501 1503 1505 1507 1509 1511 1513 1514 1516 1518 1520 1522 1524 1526 1528
1492 1492 1489 1487 1487 1486 1483 1484 1484 1483 1482 1482 1482 1482 1480 1486 1489 1490 1492 1492 1492 1493 1493 1493 1494 1494 1495 1496 1498 1499 1501 1503 1505 1506 1508 1510 1512 1514 1516 1517 1519 1521 1523 1524
1494 1494 1493 1491 1488 1486 1485 1484 1483 1482 1481 1482 1481 1481 1480 1486 1489 1491 1492 1492 1492 1493 1493 1493 1493 1494 1494 1495 1496 1497 1499 1500 1502 1504 1505 1507 1509 1510 1512 1514 1516 1517 1519 1521
1494 1493 1495 1494 1489 1487 1485 1482 1479 1477 1478 1476 1481 1482 1487 1492 1493 1494 1493 1492 1492 1493 1492 1492 1492 1492 1493 1493 1494 1495 1497 1498 1499 1501 1502 1504 1506 1507 1509 1510 1512 1514 1515 1517
1498 1493 1496 1496 1494 1492 1488 1485 1482 1478 1474 1474 1481 1482 1491 1496 1497 1496 1495 1494 1493 1493 1493 1492 1492 1492 1492 1493 1493 1494 1495 1496 1497 1498 1499 1501 1502 1504 1505 1507 1509 1510 1511 1513
1504 1500 1500 1499 1498 1495 1490 1488 1489 1487 1483 1482 1481 1489 1493 1496 1496 1496 1495 1494 1494 1493 1493 1492 1492 1492 1492 1492 1492 1493 1494 1494 1495 1495 1496 1498 1499 1501 1502 1504 1505 1506 1508 1509
1511 1507 1502 1501 1499 1498 1496 1493 1490 1487 1483 1479 1482 1486 1489 1496 1497 1497 1497 1496 1495 1494 1493 1493 1492 1492 1492 1492 1492 1492 1493 1493 1493 1493 1494 1495 1496 1498 1499 1500 1501 1503 1504 1506
1513 1510 1504 1502 1502 1501 1498 1497 1494 1490 1487 1481 1482 1490 1498 1499 1500 1500 1499 1498 1496 1495 1494 1493 1493 1492 1492 1491 1491 1491 1491 1491 1491 1492 1492 1493 1494 1495 1496 1497 1498 1499 1501 1502
1514 1511 1506 1505 1507 1506 1503 1501 1498 1495 1494 1489 1486 1498 1503 1502 1503 1502 1501 1499 1498 1496 1495 1494 1493 1492 1491 1491 1490 1490 1490 1490 1490 1490 1490 1491 1491 1492 1493 1494 1495 1496 1497 1498
1516 1514 1506 1501 1508 1510 1508 1507 1505 1503 1500 1495 1492 1501 1505 1505 1504 1503 1502 1500 1498 1496 1495 1494 1493 1492 1491 1490 1490 1489 1489 1489 1489 1489 1489 1489 1489 1490 1491 1491 1492 1492 1494 1495
1519 1517 1513 1510 1509 1512 1511 1510 1508 1506 1502 1499 1499 1502 1505 1505 1505 1504 1503 1501 1499 1496 1495 1493 1492 1491 1490 1489 1488 1488 1487 1487 1487 1487 1486 1486 1487 1487 1488 1488 1489 1489 1490 1491
1521 1519 1518 1516 1514 1514 1513 1513 1511 1511 1508 1505 1504 1506 1507 1507 1507 1506 1504 1502 1499 1496 1494 1493 1491 1490 1489 1488 1487 1486 1486 1485 1485 1484 1484 1484 1484 1484 1485 1485 1485 1486 1486 1487
1523 1521 1520 1517 1515 1514 1514 1514 1514 1514 1513 1512 1509 1509 1509 1509 1508 1506 1504 1502 1499 1497 1495 1493 1491 1489 1488 1486 1486 1485 1484 1483 1483 1482 1482 1481 1481 1481 1481 1482 1482 1482 1482 1483
1524 1523 1518 1512 1515 1513 1513 1518 1518 1517 1517 1515 1512 1512 1510 1509 1507 1506 1504 1502 1499 1497 1495 1492 1490 1488 1487 1485 1484 1483 1482 1481 1481 1480 1479 1479 1478 1478 1478 1478 1478 1478 1478 1479
1527 1523 1519 1515 1515 1517 1519 1520 1519 1518 1517 1517 1514 1512 1511 1510 1508 1506 1504 1502 1499 1497 1494 1492 1489 1487 1485 1483 1482 1481 1480 1479 1478 1477 1476 1476 1475 1475 1475 1475 1475 1475 1475 1475
1527 1525 1519 1516 1514 1514 1518 1520 1521 1520 1517 1517 1515 1513 1512 1510 1506 1504 1503 1501 1499 1496 1493 1491 1488 1485 1483 1481 1480 1479 1478 1476 1475 1475 1474 1473 1472 1472 1472 1471 1471 1471 1471 1471
1528 1526 1522 1519 1515 1514 1518 1522 1521 1521 1515 1517 1516 1514 1512 1510 1505 1503 1502 1500 1497 1494 1492 1489 1486 1483 1481 1479 1478 1477 1476 1474 1473 1472 1471 1470 1470 1469 1468 1467 1467 1467 1467 1467
1529 1526 1525 1520 1518 1516 1522 1522 1520 1518 1517 1518 1516 1515 1513 1511 1509 1506 1502 1499 1496 1493 1490 1487 1484 1481 1479 1478 1477 1475 1474 1472 1471 1470 1468 1467 1467 1466 1465 1464 1464 1463 1463 1463
1529 1525 1525 1522 1519 1521 1523 1521 1521 1520 1519 1517 1515 1514 1512 1509 1506 1503 1500 1497 1494 1491 1488 1485 1483 1480 1478 1477 1475 1473 1472 1471 1469 1468 1466 1465 1464 1463 1462 1461 1460 1459 1459 1459
1531 1530 1525 1525 1523 1523 1522 1522 1521 1519 1518 1515 1514 1511 1509 1507 1504 1501 1498 1495 1492 1489 1486 1484 1481 1479 1477 1476 1474 1472 1470 1469 1467 1466 1464 1462 1461 1460 1459 1458 1457 1456 1455 1455
1530 1531 1529 1526 1522 1522 1521 1520 1519 1517 1515 1513 1511 1509 1507 1504 1502 1499 1496 1493 1490 1488 1485 1482 1480 1478 1476 1474 1473 1471 1469 1467 1465 1464 1462 1460 1459 1457 1456 1455 1454 1453 1452 1452
1529 1529 1526 1524 1522 1521 1519 1518 1516 1515 1513 1511 1508 1506 1504 1502 1499 1497 1494 1491 1488 1486 1483 1481 1479 1476 1474 1473 1471 1469 1467 1466 1464 1462 1460 1458 1457 1456 1454 1453 1452 1451 1451 1450
1527 1526 1524 1520 1520 1520 1517 1516 1514 1512 1510 1508 1506 1503 1502 1500 1497 1494 1492 1489 1486 1484 1481 1479 1477 1475 1473 1471 1469 1467 1466 1464 1462 1460 1458 1457 1455 1454 1453 1451 1450 1449 1449 1448